星链-36629(STARLINK-36629)

导读

STARLINK-36629是美国SpaceX星链星座的一颗卫星,于2026年1月29日发射升空。星链计划旨在构建全球卫星互联网星座,为全球偏远地区、海洋航线等提供高速低延迟宽带服务。该卫星延续了星链批量部署的模式,进一步扩大了低轨卫星星座规模,助力实现全球覆盖的卫星互联网布局。

基本信息
目录编号:
67596
目录名称:
STARLINK-36629
国际标识:
2026-018H
轨道中心:
EARTH
卫星名称:
星链-36629
卫星全名:
星链-36629(STARLINK-36629)
卫星状态:
在轨 (已飞行218 天)
发射日期:
2026-01-29 UTC
国别 :
美国 (US)
星等 :
--
轨道信息
数据来源 国际轨道数据
星历时间: 2026-09-02T11:20:16+0800
1天前
查看轨道信息
半长轴: 6843.716km
偏心率: 0.0001427
轨道倾角: 97.285°
近地点辐角 101.221°
升交点赤经 308.813°
平近点角 258.919°
近地点: 464.602km
远地点: 466.556km
周期: 93.907分钟
每日圈数: 15.334332
详细信息
固有亮度:
5
最大亮度:
2.5
卫星平台:
Starlink V1.0
覆盖范围:
全球
运营商:
太空探索技术公司
运营商所在国:
美国
制造商(研发单位):
太空探索技术公司
制造商所在国:
美国
使用方式:
暂无
卫星简介
Starlink 计划是 SpaceX 推出的全球卫星互联网项目,通过发射低轨道卫星,为全球尤其是偏远地区提供高速、低延迟的互联网服务。自 2019 年起,Starlink 已部署数千颗卫星,旨在缩小全球数字鸿沟,推动互联网普及。该项目还为军事、航空等行业提供通信支持,带来广泛经济效益。
2D轨道图
3D轨道图
轨道高度分析图
轨道倾角分析图
轨道综合分析图
查看轨道综合分析图
交会数据列表
事件ID 空间交会对象 最接近时刻(TCA) 交会距离 交会风险概率(CRP) 交会风险指数(CRI) 操作
CDM_260903-055504-780406-759622
2026-09-03T
05:55:10+0000
2.054 km
极远距离
2.668094E-6 低风险 0.44
CDM_260904-043606-635406-759621
2026-09-04T
04:36:28+0000
2.203 km
极远距离
2.260455E-6 低风险 0.42
CDM_260827-221306-636506-759621
2026-08-27T
22:13:10+0000
2.754 km
极远距离
1.46862E-6 低风险 0.38